Time,TemperatureF,DewpointF,PressureIn,WindDirection,WindDirectionDegrees,WindSpeedMPH,WindSpeedGustMPH,Humidity,HourlyPrecipIn,Conditions,Clouds,dailyrainin,SoftwareType,DateUTC
2013-02-14 00:00:00,24.4,23.7,29.90,SW,214,0.0,1.0,97,0.00,,OVC OVC///CB,0.00,WUHU216DAVISVP2,2013-02-14 05:00:00,
2013-02-14 00:05:00,24.4,23.5,29.90,SSW,200,0.0,1.0,96,0.00,,OVC OVC///CB,0.00,WUHU216DAVISVP2,2013-02-14 05:05:00,
2013-02-14 00:10:00,24.4,23.5,29.91,WSW,238,0.0,1.0,96,0.00,,OVC OVC///CB,0.00,WUHU216DAVISVP2,2013-02-14 05:10:00,
2013-02-14 00:15:00,24.4,23.7,29.90,SSW,201,0.0,2.0,97,0.00,,OVC OVC///CB,0.00,WUHU216DAVISVP2,2013-02-14 05:15:00,
2013-02-14 00:20:00,24.3,23.4,29.91,SSW,201,0.0,2.0,96,0.00,,OVC OVC///CB,0.00,WUHU216DAVISVP2,2013-02-14 05:20:00,
2013-02-14 00:25:00,24.0,23.1,29.91,SSW,201,0.0,2.0,96,0.00,,OVC OVC///CB,0.00,WUHU216DAVISVP2,2013-02-14 05:25:00,
2013-02-14 00:30:00,23.8,22.9,29.91,SSW,205,0.0,2.0,96,0.00,,OVC OVC///CB,0.00,WUHU216DAVISVP2,2013-02-14 05:30:00,
2013-02-14 00:35:00,23.6,22.7,29.91,SSW,211,0.0,1.0,96,0.00,,OVC OVC///CB,0.00,WUHU216DAVISVP2,2013-02-14 05:35:00,
2013-02-14 00:40:00,23.7,23.0,29.91,SSW,211,0.0,1.0,97,0.00,,OVC OVC///CB,0.00,WUHU216DAVISVP2,2013-02-14 05:40:00,
2013-02-14 00:45:00,23.5,22.8,29.91,SSW,201,0.0,1.0,97,0.00,,OVC OVC///CB,0.00,WUHU216DAVISVP2,2013-02-14 05:45:00,
2013-02-14 00:50:00,23.4,22.7,29.91,SSW,201,0.0,1.0,97,0.00,,OVC OVC///CB,0.00,WUHU216DAVISVP2,2013-02-14 05:50:00,
2013-02-14 00:55:00,23.3,22.6,29.91,SSW,201,0.0,0.0,97,0.00,,OVC OVC///CB,0.00,WUHU216DAVISVP2,2013-02-14 05:55:00,
2013-02-14 01:00:00,23.3,22.6,29.91,SSW,203,0.0,0.0,97,0.00,,OVC OVC///CB,0.00,WUHU216DAVISVP2,2013-02-14 06:00:00,
2013-02-14 01:05:00,23.3,22.6,29.91,SSW,201,0.0,0.0,97,0.00,,OVC OVC///CB,0.00,WUHU216DAVISVP2,2013-02-14 06:05:00,
2013-02-14 01:10:00,23.2,22.5,29.91,SSE,167,0.0,0.0,97,0.00,,OVC OVC///CB,0.00,WUHU216DAVISVP2,2013-02-14 06:10:00,
2013-02-14 01:15:00,23.4,22.7,29.91,SSE,155,0.0,0.0,97,0.00,,OVC OVC///CB,0.00,WUHU216DAVISVP2,2013-02-14 06:15:00,
2013-02-14 01:20:00,23.6,23.2,29.91,SW,218,0.0,1.0,98,0.00,,OVC OVC///CB,0.00,WUHU216DAVISVP2,2013-02-14 06:20:00,
2013-02-14 01:25:00,23.7,23.3,29.91,SSW,206,0.0,1.0,98,0.00,,OVC OVC///CB,0.00,WUHU216DAVISVP2,2013-02-14 06:25:00,
2013-02-14 01:30:00,23.9,23.5,29.91,SSW,195,0.0,1.0,98,0.00,,OVC OVC///CB,0.00,WUHU216DAVISVP2,2013-02-14 06:30:00,
2013-02-14 01:35:00,24.1,23.7,29.91,South,190,0.0,1.0,98,0.00,,OVC OVC///CB,0.00,WUHU216DAVISVP2,2013-02-14 06:35:00,
2013-02-14 01:40:00,24.2,23.5,29.91,SSW,210,0.0,0.0,97,0.00,,OVC OVC///CB,0.00,WUHU216DAVISVP2,2013-02-14 06:40:00,
2013-02-14 01:45:00,24.1,23.4,29.91,South,191,0.0,2.0,97,0.00,,OVC OVC///CB,0.00,WUHU216DAVISVP2,2013-02-14 06:45:00,
2013-02-14 01:50:00,23.9,23.2,29.91,South,191,0.0,2.0,97,0.00,,OVC OVC///CB,0.00,WUHU216DAVISVP2,2013-02-14 06:50:00,
2013-02-14 01:55:00,23.9,23.2,29.91,South,191,0.0,2.0,97,0.00,,OVC OVC///CB,0.00,WUHU216DAVISVP2,2013-02-14 06:55:00,
2013-02-14 02:00:00,23.8,23.1,29.91,South,191,0.0,2.0,97,0.00,,OVC OVC///CB,0.00,WUHU216DAVISVP2,2013-02-14 07:00:00,
2013-02-14 02:05:00,23.6,22.9,29.91,South,191,0.0,1.0,97,0.00,,OVC OVC///CB,0.00,WUHU216DAVISVP2,2013-02-14 07:05:00,
2013-02-14 02:10:00,23.6,22.9,29.91,South,173,0.0,1.0,97,0.00,,OVC OVC///CB,0.00,WUHU216DAVISVP2,2013-02-14 07:10:00,
2013-02-14 02:15:00,23.5,22.8,29.91,South,172,0.0,1.0,97,0.00,,OVC OVC///CB,0.00,WUHU216DAVISVP2,2013-02-14 07:15:00,
2013-02-14 02:20:00,23.4,22.7,29.91,South,174,0.0,1.0,97,0.00,,OVC OVC///CB,0.00,WUHU216DAVISVP2,2013-02-14 07:20:00,
2013-02-14 02:25:00,23.4,22.7,29.91,SSW,205,0.0,1.0,97,0.00,,OVC OVC///CB,0.00,WUHU216DAVISVP2,2013-02-14 07:25:00,
2013-02-14 02:30:00,23.5,22.8,29.91,SSW,205,0.0,2.0,97,0.00,,OVC OVC///CB,0.00,WUHU216DAVISVP2,2013-02-14 07:30:00,
2013-02-14 02:35:00,23.6,23.2,29.91,SSW,203,0.0,2.0,98,0.00,,OVC OVC///CB,0.00,WUHU216DAVISVP2,2013-02-14 07:35:00,
2013-02-14 02:40:00,23.8,23.4,29.91,SSW,193,1.0,2.0,98,0.00,,OVC OVC///CB,0.00,WUHU216DAVISVP2,2013-02-14 07:40:00,
2013-02-14 02:45:00,23.9,23.5,29.91,South,188,3.0,3.0,98,0.00,,OVC OVC///CB,0.00,WUHU216DAVISVP2,2013-02-14 07:45:00,
2013-02-14 02:50:00,24.0,23.6,29.91,SSW,205,0.0,4.0,98,0.00,,OVC OVC///CB,0.00,WUHU216DAVISVP2,2013-02-14 07:50:00,
2013-02-14 02:55:00,24.2,23.8,29.91,SSW,211,0.0,4.0,98,0.00,,OVC OVC///CB,0.00,WUHU216DAVISVP2,2013-02-14 07:55:00,
2013-02-14 03:00:00,24.4,24.0,29.91,SW,224,1.0,4.0,98,0.00,,OVC OVC///CB,0.00,WUHU216DAVISVP2,2013-02-14 08:00:00,
2013-02-14 03:05:00,24.5,23.8,29.91,SSE,166,1.0,3.0,97,0.00,,OVC OVC///CB,0.00,WUHU216DAVISVP2,2013-02-14 08:05:00,
2013-02-14 03:10:00,24.5,23.8,29.91,SSW,200,0.0,4.0,97,0.00,,OVC OVC///CB,0.00,WUHU216DAVISVP2,2013-02-14 08:10:00,
2013-02-14 03:15:00,24.6,23.9,29.91,South,191,0.0,4.0,97,0.00,,OVC OVC///CB,0.00,WUHU216DAVISVP2,2013-02-14 08:15:00,
2013-02-14 03:20:00,24.6,23.9,29.91,SSW,194,2.0,4.0,97,0.00,,OVC OVC///CB,0.00,WUHU216DAVISVP2,2013-02-14 08:20:00,
2013-02-14 03:25:00,24.6,23.9,29.91,South,184,0.0,4.0,97,0.00,,OVC OVC///CB,0.00,WUHU216DAVISVP2,2013-02-14 08:25:00,
2013-02-14 03:30:00,24.7,24.0,29.91,SSW,195,1.0,3.0,97,0.00,,OVC OVC///CB,0.00,WUHU216DAVISVP2,2013-02-14 08:30:00,
2013-02-14 03:35:00,24.9,24.2,29.91,South,170,1.0,5.0,97,0.00,,OVC OVC///CB,0.00,WUHU216DAVISVP2,2013-02-14 08:35:00,
2013-02-14 03:40:00,25.0,24.3,29.91,SSW,200,2.0,5.0,97,0.00,,OVC OVC///CB,0.00,WUHU216DAVISVP2,2013-02-14 08:40:00,
2013-02-14 03:45:00,25.4,24.7,29.91,SSW,210,3.0,5.0,97,0.00,,OVC OVC///CB,0.00,WUHU216DAVISVP2,2013-02-14 08:45:00,
2013-02-14 03:50:00,25.6,24.9,29.91,South,177,2.0,10.0,97,0.00,,OVC OVC///CB,0.00,WUHU216DAVISVP2,2013-02-14 08:50:00,
2013-02-14 03:55:00,25.9,25.2,29.91,SSW,201,3.0,10.0,97,0.00,,OVC OVC///CB,0.00,WUHU216DAVISVP2,2013-02-14 08:55:00,
2013-02-14 04:00:00,26.1,25.4,29.91,SSW,193,4.0,10.0,97,0.00,,OVC OVC///CB,0.00,WUHU216DAVISVP2,2013-02-14 09:00:00,
2013-02-14 04:05:00,26.1,25.4,29.91,South,184,3.0,10.0,97,0.00,,OVC OVC///CB,0.00,WUHU216DAVISVP2,2013-02-14 09:05:00,
2013-02-14 04:10:00,26.2,25.5,29.91,SW,229,2.0,8.0,97,0.00,,OVC OVC///CB,0.00,WUHU216DAVISVP2,2013-02-14 09:10:00,
2013-02-14 04:15:00,26.3,25.6,29.91,South,188,4.0,9.0,97,0.00,,OVC OVC///CB,0.00,WUHU216DAVISVP2,2013-02-14 09:15:00,